PHSTZ EHSE-EHSE

Flight info

Callsign PHSTZ
Flight time 1h 0m
Altitude 1000
Route VFR
Aircraft C172/L-SBDGRY/S

Departure

Time 2026-04-14 18:45
Airport Breda International Airport (EHSE)

Arrival

Time 2026-04-14 19:45
Airport Breda International Airport (EHSE)
Time Latitude Longitude Altitude Speed Heading
2026-04-14 18:34 51.55501 4.54997 31 ft 0 kts 173°
2026-04-14 18:38 51.55471 4.55010 36 ft 7 kts 131°
2026-04-14 18:38 51.55494 4.55120 34 ft 15 kts 65°
2026-04-14 18:38 51.55547 4.55317 34 ft 20 kts 67°
2026-04-14 18:38 51.55598 4.55511 32 ft 18 kts 65°
2026-04-14 18:39 51.55643 4.55670 35 ft 13 kts 66°
2026-04-14 18:39 51.55678 4.55793 35 ft 11 kts 69°
2026-04-14 18:39 51.55690 4.55843 35 ft 0 kts 68°
2026-04-14 18:43 51.55676 4.55872 36 ft 9 kts 150°
2026-04-14 18:43 51.55631 4.55836 35 ft 1 kts 245°
2026-04-14 18:44 51.55580 4.55636 32 ft 46 kts 249°
2026-04-14 18:44 51.55389 4.54945 75 ft 82 kts 247°
2026-04-14 18:44 51.55168 4.54067 278 ft 89 kts 250°
2026-04-14 18:44 51.54946 4.53120 501 ft 91 kts 247°
2026-04-14 18:45 51.54714 4.52089 590 ft 106 kts 251°
2026-04-14 18:45 51.54465 4.50930 673 ft 114 kts 253°
2026-04-14 18:45 51.54430 4.49634 723 ft 122 kts 279°
2026-04-14 18:45 51.54721 4.48326 755 ft 126 kts 297°
2026-04-14 18:46 51.55192 4.47118 769 ft 128 kts 303°
2026-04-14 18:46 51.55731 4.45987 798 ft 129 kts 313°
2026-04-14 18:46 51.56426 4.45094 806 ft 129 kts 336°
2026-04-14 18:46 51.57282 4.45078 863 ft 123 kts 25°
2026-04-14 18:47 51.57865 4.46061 750 ft 126 kts 69°
2026-04-14 18:47 51.57917 4.47372 831 ft 113 kts 107°
2026-04-14 18:47 51.57642 4.48513 938 ft 106 kts 120°
2026-04-14 18:47 51.57662 4.49580 1031 ft 111 kts 40°
2026-04-14 18:48 51.58210 4.50417 992 ft 117 kts 69°
2026-04-14 18:48 51.58383 4.51749 900 ft 123 kts 85°
2026-04-14 18:48 51.58506 4.53098 951 ft 120 kts 83°
2026-04-14 18:48 51.58635 4.54459 912 ft 126 kts 82°
2026-04-14 18:49 51.58937 4.55775 957 ft 124 kts 56°
2026-04-14 18:49 51.59621 4.56456 1060 ft 124 kts
2026-04-14 18:49 51.60355 4.55871 1082 ft 123 kts 301°
2026-04-14 18:49 51.60453 4.54567 1134 ft 117 kts 255°
2026-04-14 18:50 51.60189 4.53335 1187 ft 116 kts 243°
2026-04-14 18:50 51.59809 4.52156 1162 ft 121 kts 240°
2026-04-14 18:50 51.59410 4.50996 1233 ft 115 kts 239°
2026-04-14 18:50 51.59072 4.49867 1264 ft 115 kts 248°
2026-04-14 18:51 51.59069 4.48614 1375 ft 116 kts 287°
2026-04-14 18:51 51.59497 4.47488 1447 ft 121 kts 306°
2026-04-14 18:51 51.60016 4.46390 1505 ft 125 kts 304°
2026-04-14 18:51 51.60536 4.45260 1570 ft 125 kts 304°
2026-04-14 18:52 51.61061 4.44139 1633 ft 125 kts 305°
2026-04-14 18:52 51.61586 4.43019 1692 ft 124 kts 304°
2026-04-14 18:52 51.62071 4.41968 1793 ft 112 kts 304°
2026-04-14 18:52 51.62536 4.40925 1694 ft 115 kts 306°
2026-04-14 18:53 51.63010 4.39899 1619 ft 110 kts 303°
2026-04-14 18:53 51.63467 4.38879 1542 ft 117 kts 305°
2026-04-14 18:53 51.63942 4.37817 1557 ft 115 kts 303°
2026-04-14 18:53 51.64397 4.36746 1530 ft 115 kts 302°
2026-04-14 18:54 51.64815 4.35668 1519 ft 114 kts 299°
2026-04-14 18:54 51.65279 4.34608 1389 ft 115 kts 304°
2026-04-14 18:54 51.65706 4.33602 1258 ft 107 kts 300°
2026-04-14 18:54 51.66144 4.32544 1178 ft 116 kts 302°
2026-04-14 18:55 51.66593 4.31495 1229 ft 113 kts 303°
2026-04-14 18:55 51.67039 4.30432 1261 ft 118 kts 302°
2026-04-14 18:55 51.67464 4.29383 1261 ft 103 kts 302°
2026-04-14 18:55 51.67864 4.28405 1195 ft 114 kts 301°
2026-04-14 18:56 51.68294 4.27305 1254 ft 113 kts 300°
2026-04-14 18:56 51.68683 4.26227 1306 ft 112 kts 295°
2026-04-14 18:56 51.69052 4.25087 1371 ft 112 kts 294°
2026-04-14 18:56 51.69387 4.23993 1375 ft 109 kts 293°
2026-04-14 18:57 51.69725 4.22868 1387 ft 114 kts 294°
2026-04-14 18:57 51.70060 4.21746 1396 ft 107 kts 293°
2026-04-14 18:57 51.70373 4.20642 1354 ft 113 kts 290°
2026-04-14 18:57 51.70664 4.19526 1354 ft 105 kts 289°
2026-04-14 18:58 51.70929 4.18396 1360 ft 104 kts 288°
2026-04-14 18:58 51.71175 4.17323 1375 ft 105 kts 287°
2026-04-14 18:58 51.71434 4.16171 1423 ft 114 kts 287°
2026-04-14 18:58 51.71681 4.14956 1490 ft 109 kts 285°
2026-04-14 18:59 51.71888 4.13739 1516 ft 117 kts 283°
2026-04-14 18:59 51.72118 4.12463 1553 ft 119 kts 285°
2026-04-14 18:59 51.72343 4.11217 1533 ft 115 kts 285°
2026-04-14 18:59 51.72563 4.09979 1468 ft 120 kts 280°
2026-04-14 19:00 51.72772 4.08679 1510 ft 113 kts 285°
2026-04-14 19:00 51.72958 4.07562 1418 ft 112 kts 279°
2026-04-14 19:00 51.73149 4.06241 1393 ft 118 kts 280°
2026-04-14 19:00 51.73237 4.04967 1441 ft 114 kts 273°
2026-04-14 19:01 51.73305 4.03835 1622 ft 79 kts 268°
2026-04-14 19:01 51.73156 4.02937 1426 ft 90 kts 221°
2026-04-14 19:01 51.72620 4.02205 1263 ft 107 kts 222°
2026-04-14 19:01 51.72110 4.01336 1147 ft 111 kts 230°
2026-04-14 19:02 51.71609 4.00324 900 ft 118 kts 231°
2026-04-14 19:02 51.71160 3.99349 821 ft 99 kts 230°
2026-04-14 19:02 51.70707 3.98573 719 ft 91 kts 222°
2026-04-14 19:02 51.70285 3.97933 787 ft 78 kts 221°
2026-04-14 19:03 51.69869 3.97316 805 ft 85 kts 215°
2026-04-14 19:03 51.69326 3.97303 854 ft 93 kts 128°
2026-04-14 19:03 51.69313 3.98352 865 ft 105 kts 74°
2026-04-14 19:03 51.69585 3.99532 703 ft 106 kts 63°
2026-04-14 19:04 51.70019 4.00462 617 ft 106 kts 44°
2026-04-14 19:04 51.70578 4.01236 597 ft 105 kts 42°
2026-04-14 19:04 51.71199 4.01831 547 ft 104 kts 27°
2026-04-14 19:04 51.71844 4.02358 532 ft 101 kts 27°
2026-04-14 19:05 51.72477 4.02851 544 ft 100 kts 11°
2026-04-14 19:05 51.73218 4.02972 559 ft 105 kts
2026-04-14 19:05 51.73915 4.03022 755 ft 104 kts
2026-04-14 19:05 51.74634 4.02977 865 ft 112 kts 359°
2026-04-14 19:06 51.75416 4.03034 932 ft 108 kts
2026-04-14 19:06 51.76128 4.03023 868 ft 97 kts
2026-04-14 19:06 51.76804 4.03021 827 ft 98 kts 358°
2026-04-14 19:06 51.77481 4.02985 834 ft 96 kts 355°
2026-04-14 19:07 51.78157 4.02933 812 ft 102 kts 359°
2026-04-14 19:07 51.78889 4.02921 798 ft 110 kts 359°
2026-04-14 19:07 51.79606 4.02921 844 ft 96 kts
2026-04-14 19:07 51.80273 4.02911 841 ft 95 kts
2026-04-14 19:08 51.80959 4.02887 797 ft 109 kts 358°
2026-04-14 19:08 51.81753 4.02871 788 ft 112 kts
2026-04-14 19:08 51.82497 4.02897 735 ft 104 kts
2026-04-14 19:08 51.83185 4.02822 691 ft 100 kts 358°
2026-04-14 19:09 51.83855 4.02756 780 ft 97 kts 356°
2026-04-14 19:09 51.84538 4.02716 851 ft 96 kts
2026-04-14 19:09 51.85208 4.02695 873 ft 98 kts 358°
2026-04-14 19:09 51.85876 4.02659 906 ft 92 kts 355°
2026-04-14 19:10 51.86582 4.02635 988 ft 103 kts
2026-04-14 19:10 51.87336 4.02840 1045 ft 114 kts 12°
2026-04-14 19:10 51.88108 4.03109 1252 ft 110 kts 14°
2026-04-14 19:10 51.88838 4.03389 1448 ft 106 kts 19°
2026-04-14 19:11 51.89543 4.03847 1489 ft 113 kts 32°
2026-04-14 19:11 51.90215 4.04550 1508 ft 118 kts 36°
2026-04-14 19:11 51.90907 4.05333 1507 ft 124 kts 39°
2026-04-14 19:11 51.91568 4.06175 1484 ft 117 kts 43°
2026-04-14 19:12 51.92184 4.07007 1431 ft 115 kts 45°
2026-04-14 19:12 51.92831 4.07892 1342 ft 124 kts 44°
2026-04-14 19:12 51.94076 4.09634 1433 ft 115 kts 43°
2026-04-14 19:13 51.94748 4.10417 1479 ft 124 kts 37°
2026-04-14 19:13 51.95421 4.11257 1383 ft 111 kts 41°
2026-04-14 19:13 51.95949 4.12025 1237 ft 100 kts 54°
2026-04-14 19:13 51.96214 4.13029 1229 ft 101 kts 82°
2026-04-14 19:14 51.96212 4.14257 1214 ft 113 kts 93°
2026-04-14 19:14 51.96205 4.15490 1311 ft 108 kts 94°
2026-04-14 19:14 51.96203 4.16731 1314 ft 106 kts 94°
2026-04-14 19:14 51.96229 4.17853 1340 ft 99 kts 90°
2026-04-14 19:15 51.96280 4.19036 1309 ft 110 kts 90°
2026-04-14 19:15 51.96345 4.20278 1383 ft 112 kts 88°
2026-04-14 19:15 51.96422 4.21540 1437 ft 113 kts 88°
2026-04-14 19:15 51.96505 4.22823 1427 ft 115 kts 89°
2026-04-14 19:16 51.96541 4.24084 1430 ft 110 kts 95°
2026-04-14 19:16 51.96534 4.25420 1247 ft 125 kts 92°
2026-04-14 19:16 51.96553 4.26681 1244 ft 112 kts 93°
2026-04-14 19:16 51.96565 4.27953 1232 ft 113 kts 91°
2026-04-14 19:17 51.96554 4.29236 1172 ft 117 kts 91°
2026-04-14 19:17 51.96560 4.30512 1087 ft 112 kts 92°
2026-04-14 19:17 51.96570 4.31765 1060 ft 113 kts 91°
2026-04-14 19:17 51.96636 4.33018 988 ft 112 kts 84°
2026-04-14 19:18 51.96693 4.34305 877 ft 111 kts 89°
2026-04-14 19:18 51.96740 4.35523 841 ft 106 kts 88°
2026-04-14 19:18 51.96802 4.36747 803 ft 115 kts 83°
2026-04-14 19:18 51.96847 4.38040 715 ft 113 kts 88°
2026-04-14 19:19 51.96794 4.39286 618 ft 109 kts 96°
2026-04-14 19:19 51.96617 4.40476 596 ft 107 kts 104°
2026-04-14 19:19 51.96563 4.41685 619 ft 110 kts 72°
2026-04-14 19:19 51.96938 4.42758 542 ft 104 kts 56°
2026-04-14 19:20 51.97360 4.43688 574 ft 105 kts 53°
2026-04-14 19:20 51.97837 4.44683 568 ft 116 kts 52°
2026-04-14 19:20 51.97979 4.45808 586 ft 113 kts 130°
2026-04-14 19:20 51.97276 4.46573 429 ft 119 kts 148°
2026-04-14 19:21 51.96632 4.46311 355 ft 102 kts 235°
2026-04-14 19:21 51.96236 4.45313 61 ft 113 kts 239°
2026-04-14 19:21 51.95805 4.44273 42 ft 109 kts 237°
2026-04-14 19:21 51.95377 4.43262 74 ft 109 kts 230°
2026-04-14 19:22 51.94949 4.42290 301 ft 107 kts 239°
2026-04-14 19:22 51.94538 4.41244 494 ft 109 kts 235°
2026-04-14 19:22 51.94138 4.40304 590 ft 94 kts 234°
2026-04-14 19:22 51.93620 4.39623 631 ft 103 kts 187°
2026-04-14 19:23 51.92975 4.40123 664 ft 111 kts 140°
2026-04-14 19:23 51.92373 4.40901 866 ft 107 kts 137°
2026-04-14 19:23 51.92121 4.42008 991 ft 114 kts 93°
2026-04-14 19:23 51.92438 4.43194 1062 ft 116 kts 63°
2026-04-14 19:24 51.92775 4.44169 1165 ft 91 kts 63°
2026-04-14 19:24 51.93083 4.45081 1286 ft 96 kts 67°
2026-04-14 19:24 51.93358 4.46145 1346 ft 109 kts 75°
2026-04-14 19:24 51.93585 4.47351 1452 ft 114 kts 75°
2026-04-14 19:25 51.93875 4.48594 1479 ft 118 kts 75°
2026-04-14 19:25 51.94158 4.49838 1441 ft 121 kts 72°
2026-04-14 19:25 51.94382 4.51168 1422 ft 114 kts 94°
2026-04-14 19:25 51.93980 4.52058 1335 ft 110 kts 160°
2026-04-14 19:26 51.93209 4.52246 1110 ft 113 kts 165°
2026-04-14 19:26 51.92516 4.52756 1043 ft 105 kts 157°
2026-04-14 19:26 51.91809 4.53138 990 ft 99 kts 163°
2026-04-14 19:26 51.91199 4.53509 1010 ft 107 kts 160°
2026-04-14 19:27 51.90568 4.53874 930 ft 87 kts 159°
2026-04-14 19:27 51.89959 4.54366 861 ft 87 kts 150°
2026-04-14 19:27 51.89425 4.54847 639 ft 106 kts 144°
2026-04-14 19:27 51.88812 4.55498 756 ft 96 kts 153°
2026-04-14 19:28 51.88286 4.55992 654 ft 91 kts 147°
2026-04-14 19:28 51.87663 4.56554 641 ft 105 kts 151°
2026-04-14 19:28 51.87102 4.57149 624 ft 90 kts 144°
2026-04-14 19:28 51.86584 4.57742 629 ft 99 kts 144°
2026-04-14 19:29 51.86015 4.58487 696 ft 109 kts 142°
2026-04-14 19:29 51.85428 4.59277 756 ft 97 kts 141°
2026-04-14 19:29 51.84943 4.59894 739 ft 96 kts 146°
2026-04-14 19:29 51.84363 4.60562 822 ft 107 kts 147°
2026-04-14 19:30 51.83966 4.61013 854 ft 102 kts 147°
2026-04-14 19:30 51.83204 4.61868 978 ft 98 kts 147°
2026-04-14 19:30 51.82641 4.62422 977 ft 90 kts 159°
2026-04-14 19:30 51.81983 4.62625 946 ft 96 kts 178°
2026-04-14 19:31 51.81305 4.62658 937 ft 102 kts 179°
2026-04-14 19:31 51.80642 4.62619 999 ft 92 kts 180°
2026-04-14 19:31 51.80002 4.62594 1025 ft 95 kts 182°
2026-04-14 19:31 51.79329 4.62556 1086 ft 99 kts 182°
2026-04-14 19:32 51.78641 4.62521 1119 ft 101 kts 180°
2026-04-14 19:32 51.77922 4.62484 1114 ft 106 kts 181°
2026-04-14 19:32 51.77174 4.62441 1100 ft 109 kts 180°
2026-04-14 19:32 51.76416 4.62405 1121 ft 105 kts 179°
2026-04-14 19:33 51.75670 4.62377 1073 ft 112 kts 185°
2026-04-14 19:33 51.74943 4.62425 1365 ft 96 kts 175°
2026-04-14 19:33 51.74236 4.62256 1176 ft 96 kts 191°
2026-04-14 19:33 51.73546 4.62239 1031 ft 103 kts 181°
2026-04-14 19:34 51.72130 4.62185 1031 ft 100 kts 184°
2026-04-14 19:34 51.71416 4.62170 938 ft 108 kts 182°
2026-04-14 19:34 51.70654 4.62115 875 ft 111 kts 182°
2026-04-14 19:35 51.69893 4.62064 881 ft 109 kts 182°
2026-04-14 19:35 51.69105 4.62033 943 ft 115 kts 181°
2026-04-14 19:35 51.68296 4.61965 998 ft 116 kts 185°
2026-04-14 19:35 51.67516 4.61912 995 ft 112 kts 183°
2026-04-14 19:36 51.66747 4.61705 992 ft 115 kts 197°
2026-04-14 19:36 51.66236 4.61477 1021 ft 115 kts 194°
2026-04-14 19:36 51.65204 4.61028 1097 ft 110 kts 196°
2026-04-14 19:36 51.64494 4.60729 1086 ft 104 kts 194°
2026-04-14 19:37 51.63783 4.60427 1030 ft 107 kts 194°
2026-04-14 19:37 51.63067 4.60126 1028 ft 106 kts 194°
2026-04-14 19:37 51.62338 4.59807 1074 ft 112 kts 195°
2026-04-14 19:37 51.61580 4.59493 1120 ft 116 kts 194°
2026-04-14 19:38 51.60782 4.59168 1095 ft 121 kts 196°
2026-04-14 19:38 51.59964 4.58821 1062 ft 123 kts 194°
2026-04-14 19:38 51.59124 4.58492 1012 ft 116 kts 195°
2026-04-14 19:38 51.58642 4.58283 954 ft 104 kts 196°
2026-04-14 19:39 51.57804 4.57930 918 ft 99 kts 194°
2026-04-14 19:39 51.57148 4.57804 888 ft 94 kts 175°
2026-04-14 19:39 51.56690 4.57845 781 ft 105 kts 185°
2026-04-14 19:39 51.55957 4.56972 688 ft 100 kts 231°
2026-04-14 19:40 51.55636 4.56040 587 ft 87 kts 248°
2026-04-14 19:40 51.55398 4.55151 469 ft 87 kts 240°
2026-04-14 19:40 51.54944 4.54630 408 ft 91 kts 158°
2026-04-14 19:40 51.54797 4.55565 475 ft 105 kts 66°
2026-04-14 19:41 51.55001 4.56296 454 ft 107 kts 74°
2026-04-14 19:41 51.55144 4.57420 432 ft 98 kts 82°
2026-04-14 19:41 51.55342 4.58433 423 ft 95 kts 71°
2026-04-14 19:41 51.55703 4.59325 459 ft 99 kts 29°
2026-04-14 19:42 51.56501 4.58975 468 ft 105 kts 289°
2026-04-14 19:42 51.56303 4.57880 385 ft 102 kts 240°
2026-04-14 19:42 51.56083 4.57271 297 ft 86 kts 241°
2026-04-14 19:42 51.55825 4.56486 156 ft 73 kts 246°
2026-04-14 19:43 51.55623 4.55783 41 ft 70 kts 246°
2026-04-14 19:43 51.55438 4.55106 32 ft 70 kts 245°
2026-04-14 19:43 51.55174 4.54372 246 ft 76 kts 223°
2026-04-14 19:43 51.54750 4.54563 411 ft 85 kts 104°
2026-04-14 19:44 51.54936 4.55552 434 ft 97 kts 68°
2026-04-14 19:44 51.55199 4.56552 393 ft 96 kts 68°
2026-04-14 19:44 51.55682 4.56997 383 ft 84 kts 335°
2026-04-14 19:44 51.55761 4.56230 197 ft 79 kts 243°
2026-04-14 19:45 51.55527 4.55432 36 ft 70 kts 248°
2026-04-14 19:45 51.55370 4.54863 29 ft 33 kts 243°
2026-04-14 19:45 51.55336 4.54806 30 ft 6 kts 62°